Total_Precipitation_Accumulation
2.29 2.42 2.24 2.11 1.83 1.99 2.26 2.38 2.17 2.38 2.37 2.35 2.30 2.27 2.28 2.01 1.85 1.80 1.85 2.02 1.94 1.88 2.04 2.10 2.01 1.97 1.90 1.73 1.58 1.37 1.19 1.10 0.98 0.86 0.78 0.71 0.66 0.58 0.52 0.39 0.34 0.27 0.23
2.04 2.10 2.02 1.99 1.90 1.98 2.16 2.17 2.16 2.43 2.53 2.47 2.15 2.00 1.99 2.02 1.93 1.79 1.93 2.03 2.05 1.86 1.95 2.23 2.34 2.33 2.35 2.17 1.93 1.69 1.45 1.27 1.05 0.86 0.78 0.74 0.67 0.61 0.64 0.65 0.67 0.39 0.27
1.76 1.85 1.86 1.81 1.87 1.83 1.85 1.84 1.92 2.15 2.15 2.11 1.93 1.79 1.83 1.89 1.93 1.90 1.81 1.86 1.96 2.02 1.98 2.14 2.33 2.39 2.57 2.56 2.38 2.04 1.76 1.47 1.17 0.89 0.73 0.69 0.65 0.55 0.54 0.61 0.65 0.45 0.31
1.52 1.63 1.55 1.53 1.52 1.48 1.48 1.64 1.72 1.90 2.05 2.11 2.05 1.85 1.92 2.00 1.87 1.95 1.93 1.89 2.15 2.00 2.24 2.37 2.35 2.31 2.59 2.86 2.95 2.70 2.28 1.78 1.40 1.11 0.88 0.75 0.70 0.61 0.54 0.52 0.52 0.49 0.35
1.41 1.50 1.50 1.50 1.27 1.30 1.33 1.31 1.57 1.75 1.99 2.01 1.73 1.79 1.67 1.71 1.74 1.64 1.86 1.76 1.93 2.06 2.25 2.32 2.40 2.29 2.60 3.14 3.59 3.67 3.19 2.48 1.90 1.57 1.39 1.21 1.05 0.83 0.69 0.66 0.59 0.54 0.48
1.43 1.39 1.31 1.24 1.10 1.24 1.40 1.51 1.85 1.79 1.72 1.73 1.51 1.74 1.60 1.40 1.50 1.62 1.61 1.70 1.77 1.63 1.89 2.17 2.40 2.01 2.35 2.97 3.43 3.76 3.85 3.45 2.78 2.22 1.92 1.73 1.56 1.19 0.83 0.70 0.67 0.63 0.57
1.43 1.40 1.30 1.40 1.19 1.20 1.22 1.25 1.44 1.53 1.45 1.49 1.84 1.96 1.62 1.36 1.40 1.44 1.45 1.68 1.74 1.70 1.96 2.33 2.47 2.38 2.09 2.04 2.17 2.70 3.43 3.84 3.64 3.01 2.49 2.15 1.95 1.57 1.12 0.86 0.75 0.70 0.66
1.29 1.22 1.37 1.30 1.24 1.29 1.22 1.25 1.42 1.52 1.48 1.52 1.73 1.93 1.73 1.78 1.63 1.24 1.46 1.55 1.61 1.79 1.93 2.05 2.35 2.57 2.25 2.30 1.69 1.81 2.55 3.17 3.72 3.71 3.11 2.50 2.22 1.96 1.58 1.27 1.01 0.85 0.80
1.15 1.23 1.23 1.29 1.34 1.12 1.25 1.36 1.35 1.41 1.45 1.41 1.43 1.72 1.77 1.78 1.59 1.29 1.29 1.35 1.52 1.78 1.90 2.02 1.88 2.04 2.20 2.45 2.26 1.74 1.91 2.18 2.96 3.75 3.66 3.02 2.45 2.01 1.79 1.67 1.50 1.25 1.09
1.19 1.11 1.14 1.33 1.36 1.19 1.35 1.09 1.19 1.40 1.45 1.29 1.32 1.31 1.34 1.50 1.62 1.60 1.41 1.32 1.39 1.50 1.61 1.74 1.85 1.93 1.98 2.24 2.33 1.70 1.34 1.51 2.17 3.10 3.63 3.42 2.88 2.27 1.97 2.02 2.27 2.22 1.82
1.50 1.21 1.15 1.31 1.40 1.35 1.37 1.28 1.50 1.36 1.27 1.22 1.26 1.33 1.36 1.33 1.23 1.47 1.55 1.48 1.42 1.24 1.27 1.38 1.48 1.56 1.58 1.81 2.06 1.54 1.21 1.33 1.57 2.09 2.58 2.91 2.90 2.70 2.49 2.56 3.05 3.41 3.22
1.55 1.45 1.35 1.48 1.51 1.45 1.45 1.39 1.45 1.40 1.38 1.36 1.25 1.23 1.45 1.43 1.31 1.44 1.36 1.32 1.29 1.03 1.05 1.19 1.25 1.34 1.43 1.63 1.60 1.43 1.47 1.57 1.49 1.51 1.63 1.89 2.22 2.42 2.63 2.83 3.13 3.56 3.77
1.38 1.48 1.52 1.63 1.53 1.50 1.45 1.46 1.48 1.50 1.54 1.55 1.41 1.23 1.23 1.33 1.35 1.35 1.32 1.18 1.15 1.06 1.11 1.08 1.12 1.31 1.45 1.83 1.89 1.69 1.64 1.77 1.53 1.36 1.29 1.30 1.44 1.68 1.93 2.23 2.63 3.07 3.47
1.35 1.48 1.55 1.46 1.42 1.42 1.35 1.47 1.38 1.34 1.38 1.45 1.39 1.57 1.49 1.26 1.37 1.41 1.47 1.58 1.52 1.43 1.42 1.39 1.48 1.64 1.80 1.93 2.07 1.88 1.60 1.49 1.27 1.17 1.13 1.11 1.15 1.25 1.40 1.53 1.72 2.00 2.24
1.33 1.36 1.31 1.29 1.32 1.33 1.43 1.54 1.45 1.39 1.45 1.37 1.38 1.68 1.59 1.31 1.30 1.38 1.46 1.66 1.90 1.76 1.63 1.69 1.83 1.97 1.95 1.96 1.97 1.79 1.61 1.49 1.26 1.12 1.07 1.03 1.02 1.03 1.05 1.08 1.13 1.28 1.41
1.29 1.35 1.31 1.30 1.30 1.22 1.28 1.46 1.41 1.45 1.53 1.53 1.51 1.55 1.57 1.48 1.46 1.50 1.56 1.68 1.91 1.93 1.79 1.74 1.98 2.09 1.94 1.79 1.95 1.89 1.70 1.59 1.31 1.13 1.01 0.98 0.98 0.98 0.99 0.98 0.95 0.97 1.01
1.31 1.34 1.36 1.39 1.35 1.31 1.33 1.41 1.35 1.45 1.53 1.62 1.62 1.56 1.56 1.69 1.72 1.61 1.66 1.72 1.89 2.09 2.02 1.91 2.07 2.11 1.99 1.79 1.74 1.74 1.68 1.60 1.41 1.32 1.13 1.03 0.98 0.95 0.93 0.95 0.99 0.97 0.92
1.34 1.33 1.36 1.44 1.36 1.36 1.40 1.32 1.35 1.44 1.53 1.57 1.66 1.80 1.81 1.83 1.78 1.70 1.76 1.81 1.95 2.19 2.21 2.08 2.06 2.09 2.02 1.92 1.81 1.64 1.46 1.40 1.39 1.48 1.30 1.15 1.06 1.02 0.99 0.95 0.93 0.90 0.87
1.42 1.39 1.35 1.38 1.42 1.48 1.50 1.36 1.32 1.32 1.30 1.29 1.43 1.68 1.92 2.16 2.06 1.91 1.85 1.83 1.90 2.02 2.20 2.08 2.02 2.17 2.15 2.03 1.88 1.65 1.47 1.39 1.21 1.28 1.29 1.19 1.05 0.97 0.91 0.87 0.85 0.83 0.78
1.39 1.45 1.47 1.46 1.45 1.44 1.42 1.40 1.42 1.37 1.30 1.23 1.27 1.38 1.52 1.74 1.93 2.04 1.89 1.76 1.81 1.93 2.09 2.13 2.21 2.47 2.54 2.37 2.06 1.80 1.67 1.52 1.35 1.16 1.17 1.12 1.03 0.95 0.91 0.88 0.84 0.82 0.81
1.42 1.57 1.64 1.61 1.56 1.52 1.42 1.49 1.58 1.47 1.46 1.38 1.35 1.33 1.28 1.38 1.52 1.68 1.71 1.85 1.89 1.90 2.03 2.14 2.36 2.78 2.80 2.54 2.10 1.86 1.78 1.71 1.51 1.29 1.18 1.03 0.92 0.84 0.86 0.92 0.91 0.86 0.80
1.79 1.85 1.80 1.76 1.72 1.55 1.62 1.61 1.58 1.57 1.63 1.61 1.56 1.50 1.38 1.30 1.32 1.40 1.46 1.57 1.74 1.82 1.91 2.02 2.22 2.53 2.65 2.51 2.23 2.00 1.79 1.66 1.51 1.36 1.25 1.19 1.04 0.97 0.88 0.81 0.91 0.89 0.85
1.87 1.95 2.01 2.00 1.95 1.98 1.88 1.60 1.52 1.53 1.63 1.67 1.74 1.77 1.49 1.28 1.35 1.32 1.40 1.41 1.42 1.54 1.64 1.76 1.97 2.18 2.47 2.56 2.41 2.04 1.86 1.70 1.46 1.34 1.28 1.24 1.15 1.03 0.91 0.86 0.91 0.79 0.76
1.78 1.74 1.74 1.71 1.74 1.75 1.70 1.46 1.37 1.28 1.42 1.49 1.50 1.49 1.47 1.35 1.25 1.26 1.28 1.23 1.18 1.20 1.25 1.29 1.43 1.70 2.00 2.34 2.52 2.30 2.11 1.91 1.66 1.45 1.23 1.21 1.17 1.06 0.92 0.83 0.90 0.77 0.67
1.68 1.59 1.54 1.52 1.54 1.60 1.59 1.40 1.28 1.18 1.23 1.26 1.25 1.26 1.30 1.22 1.20 1.07 1.03 1.05 1.03 1.00 0.98 1.00 1.07 1.23 1.49 1.80 2.15 2.28 2.01 1.68 1.53 1.33 1.16 1.07 1.02 1.04 0.99 0.84 0.81 0.83 0.70
1.86 1.78 1.71 1.70 1.68 1.73 1.77 1.53 1.38 1.26 1.32 1.33 1.40 1.38 1.33 1.19 1.13 0.96 0.90 0.94 0.91 0.84 0.85 0.83 0.81 0.87 0.99 1.26 1.63 1.77 1.83 1.59 1.35 1.21 0.95 0.88 0.85 0.87 0.91 0.79 0.65 0.64 0.64